Wind_Speed
19 19 19 19 18 18 17 16 16 15 15 15 15 16 16 16 16 17 18 19 19 20 20 21 21 22 22 21 19 18 16 14 12 11 12 13 14 14 13 14 14 13 12 12 11 11 10 10 11 11 12 12 12 13 13 14 15 15 16 16 16 16 16 16 16 15 14 13 12
20 19 19 19 19 18 17 17 16 16 16 16 15 15 15 16 16 16 17 18 18 19 19 20 21 21 21 20 18 17 15 14 13 12 12 13 14 15 15 15 14 13 13 13 13 13 12 12 13 13 13 14 14 14 14 16 17 17 17 17 17 16 16 15 15 14 13 12 11
19 19 19 19 19 19 18 18 18 17 17 16 15 15 16 16 16 16 17 18 18 18 19 19 20 21 20 19 17 16 15 14 13 13 13 14 15 16 16 16 15 14 14 15 15 15 15 15 14 14 14 15 15 15 16 17 18 18 17 17 16 16 15 15 14 13 12 12 12
19 18 17 18 19 20 20 19 18 17 16 16 16 16 16 16 16 17 18 18 19 19 19 19 20 20 20 19 18 17 17 16 14 14 14 15 15 15 16 16 16 17 17 17 16 17 17 16 16 16 16 16 17 18 19 19 18 17 17 16 16 15 14 14 13 13 12 12 13
20 19 19 19 20 21 20 19 17 16 16 16 16 16 16 16 16 17 18 19 20 20 20 20 20 20 20 20 19 19 19 17 15 13 13 14 15 15 15 16 18 19 19 18 18 17 17 17 17 18 18 19 20 21 21 20 18 17 16 16 15 14 12 12 11 11 12 12 12
23 23 23 22 22 21 19 18 16 16 16 16 16 15 15 15 16 16 18 19 20 20 20 20 20 20 20 21 21 21 20 18 14 12 12 13 14 15 15 15 17 19 19 19 19 18 18 19 19 20 21 21 22 21 21 19 18 17 16 15 14 12 12 11 11 11 11 11 12
26 25 24 23 21 19 18 17 16 16 16 15 15 15 15 15 15 16 17 19 19 20 19 19 19 19 20 21 21 21 19 17 14 12 11 12 13 14 15 15 15 17 18 19 19 19 20 20 21 21 21 21 20 20 19 18 17 16 15 15 14 13 12 11 12 12 12 11 12
26 25 24 22 20 18 17 16 15 15 15 15 15 15 15 15 15 16 17 18 19 20 19 19 18 19 19 20 20 20 18 16 13 12 11 11 12 13 14 14 15 15 17 18 19 20 20 21 20 20 19 19 19 18 18 18 17 17 16 16 14 13 12 12 12 12 12 11 11
26 24 22 20 19 17 16 15 15 14 15 17 17 17 16 16 16 16 16 18 19 20 20 19 18 18 18 18 18 18 16 14 12 11 11 11 12 13 13 14 14 15 16 17 18 19 19 19 19 17 17 17 17 18 18 18 18 17 16 14 12 11 11 12 11 11 11 11 11
24 22 21 19 18 17 16 16 15 16 18 19 19 18 17 17 17 16 16 17 19 20 20 19 18 17 16 16 15 14 13 12 11 11 10 10 11 12 13 14 14 15 16 18 18 19 19 18 18 17 16 16 16 17 17 17 16 14 12 11 10 10 10 11 10 10 10 10 10
22 21 20 19 18 17 17 17 17 18 19 19 18 18 17 17 17 16 16 17 18 19 19 19 18 17 15 14 13 12 12 11 11 10 9 9 10 11 13 14 15 16 18 19 19 19 19 18 17 17 16 16 15 15 14 13 12 10 9 9 9 9 10 10 10 10 10 10 10
21 21 20 19 18 18 17 17 18 18 18 18 17 17 17 18 18 17 17 17 17 17 18 18 18 16 15 14 13 12 11 10 10 10 9 9 10 12 14 15 16 18 19 19 18 18 17 17 16 16 15 15 14 13 12 11 10 10 9 9 9 9 9 10 10 10 10 10 10
20 20 20 19 18 18 17 17 18 18 17 17 17 17 19 19 19 18 18 18 17 16 16 17 17 16 15 14 14 13 12 11 10 10 10 10 11 13 14 15 17 18 18 17 17 16 16 15 14 13 13 13 12 11 11 10 10 10 9 9 9 9 8 8 8 8 8 8 8
20 20 20 19 18 17 17 17 17 17 17 17 18 19 20 20 19 20 20 19 17 16 15 16 16 16 15 14 14 13 13 12 12 11 11 12 13 14 15 15 16 16 16 15 15 15 15 15 14 13 12 11 10 9 9 9 9 8 8 8 8 8 8 8 7 7 7 8 8
19 19 19 18 18 17 17 17 17 17 17 18 19 20 20 19 20 20 20 18 16 15 15 15 16 16 16 15 15 15 14 14 13 13 13 14 14 14 14 14 14 13 13 13 13 13 13 14 14 13 12 10 9 8 8 7 7 7 6 7 7 7 7 7 7 7 8 8 9
19 19 18 18 18 17 17 17 17 18 18 19 19 19 18 18 19 19 18 16 15 15 15 16 17 17 16 16 17 17 17 16 15 14 14 14 14 14 14 13 12 12 11 11 10 10 11 11 11 11 10 9 8 8 7 6 6 6 5 6 6 6 7 7 8 8 8 9 10
18 18 19 19 18 18 18 18 18 19 19 19 19 18 17 17 18 17 16 15 15 16 16 17 18 18 18 19 19 19 19 17 15 14 14 14 14 14 13 13 12 11 10 10 10 9 9 9 8 8 7 7 7 6 6 6 5 5 5 5 6 7 7 8 9 9 10 11 11
18 19 19 19 19 19 19 19 19 19 19 19 18 18 17 17 17 17 16 16 16 17 18 18 19 19 20 21 21 21 19 17 15 14 14 14 14 13 13 12 11 11 10 10 9 8 8 7 6 6 5 5 5 4 4 4 5 5 5 6 7 7 8 9 10 11 11 12 13
18 18 19 19 19 19 19 19 19 19 18 18 18 17 18 19 18 17 16 17 17 18 19 19 20 21 22 22 22 20 18 17 16 16 15 15 14 13 12 11 10 9 9 8 7 7 6 5 5 4 4 4 3 4 4 4 5 5 6 7 8 9 10 10 11 12 13 13 14
17 17 18 18 18 18 18 18 17 17 17 17 17 18 19 21 20 19 19 19 19 20 20 21 21 22 22 22 21 20 18 16 16 16 16 15 13 12 11 10 9 8 7 7 6 6 5 5 4 4 4 3 4 4 4 5 6 7 7 8 9 10 11 12 12 13 14 15 16
16 16 16 16 16 16 16 16 15 15 16 16 17 18 20 21 21 21 21 22 21 21 22 22 23 22 22 21 20 19 17 16 15 15 14 13 12 11 10 9 8 7 6 6 5 5 4 4 4 4 4 4 5 5 6 6 7 8 9 9 10 11 12 13 14 14 15 16 16
15 15 15 14 14 14 14 14 14 14 15 16 17 19 21 22 22 23 23 23 23 23 23 24 23 22 20 18 17 17 16 14 14 13 12 11 10 9 9 8 7 6 6 5 5 4 4 4 4 4 5 5 6 6 7 8 8 9 10 10 11 12 13 14 14 15 15 16 16
14 14 13 13 12 12 12 13 14 15 16 18 19 21 22 23 23 23 23 24 24 24 24 24 22 21 18 17 15 14 13 12 11 11 10 9 8 8 8 7 6 6 5 5 5 4 4 4 5 5 6 6 7 8 8 9 9 9 10 11 11 12 13 14 14 14 14 14 14
14 14 14 13 13 14 14 15 16 18 19 21 21 22 23 23 23 22 22 22 22 23 22 22 21 20 18 16 14 13 11 10 10 9 8 8 7 7 6 6 5 5 4 4 4 4 5 5 5 6 6 7 7 8 8 9 9 10 10 11 11 12 12 12 12 12 12 11 11
15 16 17 18 18 18 18 19 20 22 23 23 23 23 23 23 22 22 21 21 21 20 20 19 19 18 17 16 14 12 11 10 9 8 7 7 6 5 5 4 4 4 4 4 4 5 5 5 6 6 6 6 7 7 8 8 9 10 10 11 11 11 11 11 11 10 10 9 10
19 20 22 22 23 23 23 23 24 24 24 24 24 23 22 22 21 20 20 19 19 18 17 16 16 15 14 13 12 11 10 8 7 6 5 5 4 4 3 4 4 4 5 5 5 5 5 5 6 6 6 6 6 7 7 8 9 9 10 10 10 10 10 9 9 8 8 8 9
22 23 24 24 25 25 24 24 23 23 23 22 22 22 21 20 19 18 17 17 16 15 14 14 13 13 12 11 9 8 7 7 6 5 4 3 3 3 4 4 4 4 4 4 4 4 5 6 6 6 6 7 7 7 8 9 9 10 10 9 9 9 8 8 7 7 7 7 7
21 21 22 22 22 22 22 21 19 19 19 19 19 19 18 18 17 16 15 15 14 14 13 12 11 10 9 8 7 6 5 5 4 4 3 3 3 3 3 3 3 3 3 4 4 5 6 6 6 6 7 7 7 8 8 8 9 9 9 8 8 7 7 6 6 6 6 5 5
19 18 18 18 18 18 17 16 16 16 16 16 16 16 17 16 16 15 14 13 13 12 11 10 9 9 8 7 6 5 4 3 3 3 3 2 1 1 0 0 1 2 4 5 5 6 6 6 6 6 7 7 7 8 8 8 8 7 7 6 6 5 5 5 5 4 4 4 4
18 17 17 17 17 16 16 15 15 15 15 15 15 15 16 15 15 14 13 12 10 9 9 8 8 8 7 5 4 3 3 3 3 3 2 2 2 2 1 1 1 2 4 5 5 5 5 6 6 6 7 7 7 7 7 7 6 6 5 5 4 4 3 3 3 3 3 3 3
18 17 17 17 17 17 16 16 15 14 14 14 14 14 14 13 13 12 11 10 9 8 7 7 7 6 5 4 3 3 3 3 3 3 2 2 1 1 1 1 0 1 2 3 4 4 4 5 6 6 7 7 7 7 6 6 5 4 4 3 3 2 2 2 2 2 2 3 3
16 16 16 16 17 16 15 14 13 13 13 13 12 12 12 12 11 11 10 9 8 8 7 7 6 6 5 4 4 4 4 4 3 3 2 2 1 1 2 2 1 1 1 2 3 4 5 5 6 6 7 7 6 6 5 5 4 4 3 3 3 2 2 2 2 2 2 3 3
14 14 14 14 14 14 13 13 12 12 12 11 11 10 10 10 10 10 10 10 9 9 9 8 8 8 8 7 7 7 6 5 5 4 3 3 4 5 5 5 4 3 3 4 5 6 7 8 8 8 8 7 7 6 6 5 5 5 4 4 4 3 3 3 3 3 3 3 3
13 12 12 12 12 12 12 11 11 11 10 10 9 9 9 9 9 10 10 10 10 10 10 9 9 10 10 10 10 11 10 9 7 6 6 6 7 9 10 9 6 5 4 6 7 9 10 10 10 9 9 8 8 8 7 7 6 6 5 5 5 4 4 4 4 4 4 3 3
12 11 11 11 11 11 11 11 10 10 9 9 9 9 9 9 9 9 9 9 9 10 10 10 10 10 11 12 12 12 11 10 9 8 8 8 10 12 12 10 7 5 5 7 8 9 9 9 9 9 9 9 8 8 8 7 6 6 6 5 5 5 5 4 4 4 4 3 3
12 11 11 11 11 11 11 11 10 10 9 9 9 9 9 9 9 9 9 9 9 9 9 9 10 10 11 12 12 12 11 10 10 10 10 10 11 12 11 9 7 6 7 8 9 9 8 8 8 8 9 9 8 8 7 6 6 6 5 5 5 4 4 4 4 4 3 3 3
12 12 11 11 11 11 11 10 10 9 9 8 8 8 8 8 8 8 8 8 8 8 8 8 9 9 10 10 11 11 10 10 10 11 11 11 11 11 10 10 9 9 9 9 9 9 9 8 8 9 9 9 8 7 7 6 5 5 4 4 4 4 4 4 4 4 3 4 4
12 11 11 10 10 10 10 9 9 8 8 8 8 8 7 7 7 8 8 8 8 8 8 8 8 9 9 9 9 10 10 10 11 11 12 13 12 12 13 12 11 10 9 9 9 9 9 9 9 9 9 8 8 7 6 6 5 4 4 4 4 4 4 4 4 4 4 4 5
11 10 10 9 9 9 8 8 8 7 7 7 7 7 7 7 7 7 8 8 7 7 7 8 9 9 9 9 9 9 10 10 10 11 12 14 14 13 14 14 12 10 8 8 7 8 9 9 9 9 8 8 7 7 6 5 5 4 4 3 3 3 4 4 4 4 5 5 6
9 9 8 8 8 7 7 6 6 6 6 6 6 7 7 7 7 7 8 8 8 8 8 9 9 9 9 9 9 9 9 9 10 10 12 13 13 12 12 12 11 9 7 7 6 6 7 9 9 9 8 8 7 7 6 5 5 4 4 3 3 3 4 4 5 5 6 6 7
8 8 7 7 6 6 6 5 5 5 5 6 6 7 7 7 8 8 9 9 9 9 10 10 10 10 10 10 9 9 9 9 10 10 11 11 12 11 10 9 8 6 4 3 4 4 4 6 8 9 8 7 7 7 6 5 4 4 4 3 3 3 4 5 5 5 6 6 7
Wind_Direction
197 201 203 203 205 208 212 216 222 229 236 241 244 246 245 240 235 230 226 224 221 219 218 217 217 219 221 224 227 229 231 233 233 232 229 226 222 216 214 216 217 213 206 201 201 202 207 216 222 223 221 219 219 218 214 209 205 202 201 201 202 204 206 209 213 216 219 222 225
197 201 204 205 207 210 213 217 223 230 236 242 246 247 245 239 232 225 221 218 215 214 213 213 214 215 217 219 221 224 226 228 231 231 230 227 226 226 227 231 233 229 221 213 211 211 213 215 219 221 221 220 219 217 213 209 207 206 206 206 208 211 214 217 220 224 228 231 233
197 201 204 206 208 211 215 219 225 231 237 243 246 246 242 236 228 221 216 213 211 210 210 210 211 212 213 214 216 218 221 224 229 232 232 228 227 227 231 236 239 238 232 224 220 218 217 216 216 216 218 219 219 217 214 213 212 212 211 212 213 215 218 221 225 230 233 235 237
198 202 203 204 208 212 216 221 227 232 238 243 244 242 237 230 222 217 213 211 209 208 207 207 208 209 210 210 212 215 218 221 226 232 233 229 227 227 228 230 234 235 233 228 224 221 219 217 216 216 218 219 219 217 215 213 213 213 212 212 212 213 215 219 224 228 232 235 238
196 200 203 204 208 213 217 222 226 231 236 240 242 238 230 222 216 212 211 211 208 207 206 206 207 207 208 209 212 214 216 218 222 228 231 229 229 228 227 226 227 228 229 227 224 222 220 218 216 216 216 216 216 214 212 211 211 210 210 209 209 210 214 219 225 230 234 238 241
197 200 204 208 211 214 217 220 223 228 234 239 239 233 223 215 210 208 209 210 209 207 206 206 206 207 209 211 212 214 214 215 218 224 227 228 229 230 230 228 226 225 225 225 223 222 220 219 216 215 214 213 212 210 209 208 208 209 209 209 211 215 221 228 234 238 240 243 246
201 203 206 209 211 213 215 218 223 229 235 239 236 228 219 212 209 208 210 210 209 207 205 206 206 208 211 213 214 214 213 212 215 219 223 227 228 230 230 229 227 225 224 223 221 220 219 217 215 214 214 214 212 210 207 206 207 209 212 215 219 225 231 237 241 243 244 245 246
204 206 208 209 210 211 213 218 224 229 232 234 232 225 217 212 211 212 212 213 211 209 207 207 208 209 212 214 216 215 214 212 212 216 221 226 228 229 228 228 226 224 222 221 219 217 215 215 215 215 216 216 213 209 206 206 207 210 215 221 226 230 235 238 241 242 242 243 244
206 208 209 210 210 211 213 217 222 223 224 226 226 222 216 213 213 214 215 215 215 213 211 210 208 208 211 215 217 217 214 211 210 213 220 226 229 230 228 227 226 224 222 219 216 214 214 215 216 216 216 214 210 208 207 208 209 211 215 221 227 232 235 236 238 238 239 241 243
206 207 208 210 210 211 212 214 217 220 223 225 224 220 216 215 217 219 219 220 219 217 216 214 209 207 208 212 216 216 212 208 208 211 217 225 230 232 231 229 228 226 222 219 216 215 215 216 216 214 212 210 207 206 206 208 207 206 208 215 221 227 231 233 234 236 239 242 246
206 207 207 209 210 211 212 213 216 221 225 226 223 219 217 218 221 223 224 223 222 221 219 215 211 207 205 206 209 210 208 206 207 209 214 222 230 233 232 230 228 226 223 220 217 216 214 214 213 212 211 209 206 204 203 203 200 198 200 207 216 222 227 231 234 237 242 247 254
206 206 207 208 209 210 211 214 218 223 225 225 221 218 219 222 223 224 224 224 224 222 219 215 211 208 205 203 203 204 204 204 206 208 212 219 228 229 228 226 225 224 221 217 213 210 209 209 209 210 210 210 207 203 200 199 198 199 203 209 216 223 228 232 237 241 246 253 259
204 205 206 207 208 210 212 215 220 223 224 222 220 221 223 224 224 224 224 224 224 221 217 213 210 208 207 204 202 201 201 203 204 207 210 216 221 222 222 221 221 220 217 212 208 205 202 199 198 196 197 199 199 197 197 198 200 203 206 210 215 221 227 233 238 243 249 255 261
203 205 206 208 208 210 213 216 221 223 223 221 222 224 226 227 227 226 225 222 218 215 213 210 209 208 208 205 202 200 200 200 201 203 206 210 213 214 215 217 218 217 214 212 209 205 200 195 189 184 182 183 185 186 188 192 196 199 202 207 212 220 227 235 241 247 253 259 264
203 206 207 209 210 211 214 217 220 223 224 224 226 228 230 232 231 228 222 214 209 207 209 208 207 207 206 203 199 197 195 193 194 197 200 203 205 206 208 209 210 211 212 212 211 210 207 203 198 191 183 176 173 173 176 180 185 192 201 210 219 228 237 244 250 256 261 265 270
206 207 209 210 211 213 214 217 222 225 228 230 232 234 236 236 231 222 212 202 200 202 206 207 207 204 200 196 193 189 186 184 186 190 196 199 200 199 199 199 199 201 204 208 211 213 215 216 212 204 192 181 176 174 176 180 189 200 213 226 237 245 252 258 262 266 269 272 274
209 209 210 211 212 214 216 220 224 229 232 235 238 239 238 234 222 209 197 192 195 201 205 205 202 198 193 189 185 181 178 177 181 187 193 195 195 193 192 192 193 195 198 202 206 209 212 213 212 206 198 191 189 188 190 195 205 217 230 243 254 260 264 268 270 271 273 274 274
211 211 212 213 214 217 220 224 228 232 235 238 240 240 236 225 209 196 187 187 193 200 204 200 194 189 186 182 179 174 172 174 181 187 191 191 189 188 188 189 190 191 193 195 197 197 197 194 193 193 195 197 201 204 211 217 227 237 246 254 260 265 268 270 271 271 272 273 273
213 214 215 216 219 221 225 228 231 234 236 239 240 237 228 215 201 191 186 188 192 197 198 193 186 182 179 177 174 171 170 174 182 188 189 187 185 184 184 185 185 184 182 180 180 179 178 178 179 185 192 201 212 223 231 238 244 249 253 257 261 264 267 268 270 271 273 274 275
214 215 217 220 222 224 227 229 231 233 235 235 233 228 218 208 197 191 190 191 191 191 190 186 182 179 177 175 172 170 170 176 182 185 185 182 180 178 176 175 172 169 166 162 161 162 165 169 177 184 194 208 220 230 238 243 249 252 254 257 260 263 266 269 272 274 276 277 278
213 214 216 219 221 223 225 227 229 229 228 224 219 212 205 197 190 186 185 185 186 186 184 181 180 177 175 172 170 169 170 175 178 178 176 174 170 167 165 163 161 160 160 159 160 163 168 176 187 200 212 221 230 236 242 248 252 255 258 261 264 268 271 273 276 277 279 279 280
206 207 210 212 215 217 219 219 217 214 210 204 198 193 188 183 179 176 174 175 177 178 178 176 174 172 169 165 163 164 166 168 169 169 167 162 158 157 158 159 160 162 164 167 171 179 189 203 215 226 234 239 244 248 252 255 258 261 266 269 272 274 275 277 278 279 280 281 282
196 197 197 198 199 200 200 198 195 191 187 182 178 174 172 170 167 166 166 166 168 170 170 168 165 161 158 154 153 154 155 156 157 157 156 154 153 155 157 161 164 169 174 179 186 196 209 223 232 240 246 250 254 258 260 264 267 270 274 276 278 278 279 280 281 282 284 285 286
183 180 177 174 173 173 173 172 171 169 167 164 162 160 159 158 157 157 158 158 159 160 160 159 156 151 147 144 143 142 141 140 142 145 149 152 155 158 161 165 172 180 188 198 207 219 228 236 243 249 254 258 262 266 270 274 277 280 282 283 284 285 286 288 290 291 292 292 291
164 160 157 154 153 152 153 153 153 153 152 152 152 151 149 148 148 150 151 152 152 152 151 148 145 142 138 135 134 134 134 134 137 143 150 156 160 163 169 179 190 202 213 223 231 239 245 250 255 261 266 271 276 280 283 286 288 290 291 293 294 296 299 301 301 300 298 296 294
148 147 146 144 144 144 143 143 143 142 141 142 143 143 142 142 141 142 143 143 143 141 137 134 130 127 125 124 126 128 132 135 139 145 152 160 166 178 194 207 216 221 226 231 239 248 257 267 274 281 288 293 296 298 299 299 299 300 302 303 304 305 306 307 306 305 302 298 296
143 142 142 142 142 141 140 139 137 134 133 134 134 134 133 131 130 130 128 125 122 119 116 113 111 110 112 114 119 125 132 137 142 147 154 167 188 213 225 231 232 232 234 241 253 266 277 286 294 300 305 308 309 310 309 308 307 307 308 309 309 309 308 306 305 305 304 302 300
139 139 139 140 140 140 138 136 131 126 123 122 121 120 119 115 112 110 106 102 98 97 99 101 103 106 111 117 124 131 138 144 152 158 168 185 211 231 240 244 245 254 266 278 285 291 297 303 307 311 313 314 314 312 310 309 309 310 311 311 312 310 308 307 306 307 307 308 310
132 133 134 134 132 130 128 123 116 110 106 105 102 100 98 96 96 95 94 93 93 96 101 107 112 118 124 131 137 144 152 161 172 179 184 193 205 218 223 324 325 311 305 304 305 308 311 315 317 318 317 316 315 314 313 312 313 314 314 314 313 312 311 311 310 310 311 312 318
122 123 123 121 117 112 107 102 98 94 92 89 88 87 88 91 93 96 98 101 106 111 116 119 122 127 132 136 144 156 166 174 169 161 150 135 117 105 98 75 6 325 312 308 310 313 317 319 320 320 319 318 318 318 317 316 317 317 318 318 317 317 317 315 314 312 312 314 320
112 112 111 109 105 101 98 97 95 94 93 93 93 94 96 100 103 106 111 115 119 121 121 121 122 126 131 139 154 167 179 188 187 186 184 171 163 155 144 129 91 313 308 308 312 316 319 321 323 324 323 323 323 322 322 322 323 323 324 328 328 328 323 317 311 311 315 320 324
103 102 101 100 99 100 102 104 105 105 106 108 109 111 113 116 119 123 127 131 132 131 131 132 137 143 151 160 169 173 175 178 183 187 189 185 165 138 127 124 113 74 348 342 342 339 338 339 339 338 337 336 336 337 337 339 341 343 344 347 347 345 342 336 331 333 336 340 343
94 95 97 98 100 103 108 111 113 113 114 117 119 122 125 126 129 132 135 137 138 138 140 144 151 153 155 156 157 157 158 159 161 159 151 135 120 111 109 107 102 85 49 21 5 358 354 354 353 353 352 353 355 356 358 358 0 0 1 1 0 358 356 353 353 354 357 1 8
92 95 99 103 105 109 112 114 114 115 117 120 122 124 125 126 128 130 131 132 133 135 139 144 147 148 148 149 148 147 147 150 150 145 134 122 113 110 111 111 106 86 51 20 5 360 358 358 359 0 1 3 4 5 6 6 5 4 3 2 1 1 0 0 1 5 9 15 21
100 103 106 110 112 113 115 115 115 117 119 121 122 122 123 124 125 125 125 126 128 131 135 137 140 142 143 144 146 147 148 148 147 141 130 118 112 112 115 115 105 75 33 7 360 359 360 1 3 5 7 9 10 10 10 8 6 5 4 3 2 1 3 5 8 13 16 19 21
106 108 110 112 112 113 113 114 115 118 120 121 122 123 124 125 126 125 124 123 126 129 131 132 135 139 142 145 147 149 150 150 146 139 131 124 121 121 120 109 84 50 23 9 4 4 6 6 7 10 13 15 18 19 19 17 15 14 11 10 9 9 12 13 16 17 17 14 10
105 107 108 108 109 110 111 114 117 120 122 124 125 126 127 128 127 125 123 122 125 129 131 133 137 141 145 148 149 150 151 151 146 139 134 133 133 128 115 95 72 50 33 22 15 11 9 9 11 15 18 22 26 30 32 31 31 29 27 24 21 23 24 24 21 15 8 359 352
101 102 103 104 106 108 111 114 119 123 125 126 126 126 127 127 125 123 122 123 128 133 136 139 143 145 148 151 153 153 153 153 149 144 139 138 137 128 115 101 88 71 52 36 23 12 6 5 11 18 24 28 34 40 44 47 47 46 42 37 32 30 28 22 13 3 352 344 339
96 96 98 100 103 105 110 115 120 122 122 123 123 123 124 124 124 124 125 128 132 137 142 146 149 150 152 155 157 158 157 157 155 152 148 145 144 139 130 122 115 104 86 66 41 16 3 1 9 20 31 37 42 48 54 59 61 60 55 48 37 26 16 8 359 349 340 334 330
93 94 96 98 99 102 107 113 115 115 115 116 117 119 121 124 126 127 129 133 136 140 144 148 149 150 151 154 156 157 157 158 159 159 157 157 157 155 149 139 134 126 112 96 77 47 18 6 10 21 34 43 49 54 60 67 71 68 61 50 35 17 3 353 346 340 334 329 326
94 95 97 98 100 102 105 108 110 112 115 118 120 123 126 128 129 130 131 133 135 137 140 142 142 142 143 146 149 152 154 155 158 160 163 166 168 168 165 157 149 143 136 121 93 73 46 25 22 24 31 42 51 56 60 68 72 68 57 40 24 8 357 346 340 335 330 326 323
Height
1460 1461 1462 1463 1464 1464 1465 1465 1466 1467 1467 1468 1468 1469 1469 1469 1469 1469 1470 1470 1470 1471 1472 1473 1474 1475 1476 1477 1477 1478 1479 1479 1480 1480 1481 1482 1482 1482 1483 1483 1484 1484 1484 1485 1485 1486 1486 1487 1487 1488 1488 1489 1489 1489 1490 1491 1491 1492 1492 1492 1493 1493 1494 1494 1494 1494 1495 1495 1496
1459 1461 1461 1462 1462 1463 1464 1464 1465 1465 1466 1466 1467 1467 1467 1468 1468 1468 1469 1469 1469 1470 1471 1472 1472 1473 1474 1475 1476 1477 1478 1478 1479 1480 1480 1481 1481 1482 1482 1482 1483 1483 1484 1484 1485 1485 1485 1486 1487 1487 1488 1488 1488 1489 1489 1490 1491 1491 1491 1491 1492 1492 1492 1493 1493 1494 1494 1494 1495
1459 1460 1460 1461 1461 1462 1463 1463 1464 1464 1464 1465 1466 1466 1466 1466 1467 1467 1467 1468 1468 1469 1470 1470 1471 1472 1473 1474 1475 1476 1476 1477 1478 1479 1479 1480 1480 1481 1481 1481 1482 1482 1483 1483 1484 1484 1484 1485 1485 1486 1486 1487 1488 1488 1489 1489 1490 1490 1490 1490 1491 1491 1491 1492 1493 1493 1494 1494 1494
1458 1459 1460 1460 1460 1461 1461 1462 1462 1463 1463 1464 1464 1465 1465 1465 1465 1466 1466 1467 1467 1468 1469 1469 1470 1471 1472 1473 1474 1474 1475 1476 1477 1478 1478 1479 1479 1480 1480 1480 1481 1481 1482 1482 1483 1483 1484 1484 1484 1485 1485 1486 1487 1488 1488 1489 1489 1489 1489 1489 1490 1490 1491 1491 1492 1492 1493 1493 1494
1457 1458 1458 1459 1459 1459 1459 1460 1461 1462 1462 1463 1463 1464 1464 1464 1464 1465 1465 1466 1466 1467 1468 1469 1469 1470 1471 1472 1472 1473 1474 1475 1476 1477 1477 1478 1478 1479 1479 1479 1480 1480 1480 1481 1481 1482 1482 1483 1483 1484 1484 1485 1486 1486 1487 1487 1488 1488 1488 1489 1489 1489 1490 1490 1491 1491 1492 1492 1493
1455 1455 1456 1456 1457 1458 1458 1459 1460 1461 1461 1462 1462 1462 1463 1463 1463 1464 1464 1465 1465 1466 1467 1468 1468 1469 1469 1470 1471 1472 1473 1474 1475 1475 1476 1476 1477 1478 1478 1478 1479 1479 1479 1480 1480 1481 1481 1482 1482 1483 1484 1484 1485 1485 1486 1486 1487 1487 1488 1488 1489 1489 1489 1490 1490 1490 1491 1491 1492
1453 1453 1454 1455 1456 1457 1458 1458 1459 1459 1460 1460 1461 1461 1462 1462 1462 1463 1463 1464 1464 1465 1466 1467 1467 1468 1469 1469 1470 1471 1472 1473 1474 1474 1475 1475 1476 1477 1477 1477 1478 1478 1479 1479 1479 1480 1480 1481 1481 1482 1483 1483 1484 1484 1484 1485 1486 1486 1487 1488 1488 1489 1489 1489 1489 1490 1490 1490 1491
1451 1452 1453 1454 1455 1456 1457 1457 1458 1458 1459 1459 1459 1460 1461 1461 1462 1462 1463 1463 1464 1464 1465 1466 1466 1467 1468 1469 1469 1470 1471 1472 1473 1473 1474 1474 1475 1475 1476 1476 1477 1477 1478 1478 1478 1479 1479 1480 1480 1481 1482 1483 1483 1483 1484 1484 1485 1486 1486 1487 1487 1488 1488 1489 1489 1489 1489 1490 1490
1451 1452 1453 1454 1455 1455 1456 1456 1457 1458 1458 1458 1459 1459 1460 1460 1461 1461 1462 1463 1463 1464 1464 1465 1466 1466 1467 1468 1469 1469 1470 1471 1472 1472 1473 1473 1474 1474 1475 1476 1476 1476 1477 1477 1478 1478 1478 1479 1480 1480 1481 1482 1482 1483 1483 1484 1484 1484 1485 1486 1486 1487 1488 1488 1488 1489 1489 1489 1489
1450 1451 1453 1453 1454 1455 1455 1456 1456 1457 1457 1458 1458 1458 1459 1459 1460 1460 1461 1462 1462 1463 1464 1464 1465 1465 1466 1467 1467 1468 1469 1470 1471 1471 1472 1473 1473 1474 1474 1475 1475 1476 1476 1476 1477 1477 1478 1478 1479 1479 1480 1480 1481 1481 1482 1482 1483 1483 1484 1485 1485 1486 1487 1487 1488 1488 1488 1488 1489
1450 1451 1452 1453 1453 1454 1454 1455 1455 1456 1456 1457 1457 1457 1458 1459 1459 1460 1460 1461 1461 1462 1463 1463 1464 1464 1465 1466 1467 1467 1468 1469 1470 1470 1471 1472 1473 1473 1474 1474 1474 1475 1475 1476 1476 1476 1477 1477 1478 1478 1479 1479 1479 1480 1480 1481 1482 1482 1483 1484 1484 1485 1486 1486 1486 1487 1487 1487 1488
1450 1451 1451 1452 1452 1453 1454 1454 1454 1455 1455 1456 1456 1457 1457 1458 1459 1459 1459 1460 1460 1461 1462 1462 1463 1464 1464 1465 1466 1466 1467 1468 1469 1470 1470 1471 1472 1473 1473 1474 1474 1474 1474 1475 1475 1475 1475 1476 1476 1477 1477 1478 1479 1479 1479 1480 1481 1481 1482 1483 1483 1484 1484 1485 1485 1485 1486 1486 1486
1449 1450 1450 1451 1452 1452 1453 1453 1453 1454 1454 1454 1455 1456 1456 1457 1458 1458 1459 1459 1460 1460 1461 1461 1462 1463 1464 1464 1465 1466 1466 1467 1468 1469 1469 1470 1471 1472 1472 1473 1473 1473 1474 1474 1474 1474 1474 1475 1475 1476 1477 1477 1478 1478 1478 1479 1479 1480 1481 1482 1482 1483 1484 1484 1484 1484 1485 1485 1485
1449 1449 1449 1450 1451 1451 1452 1452 1452 1453 1453 1454 1454 1455 1456 1456 1457 1458 1458 1459 1459 1459 1460 1461 1461 1462 1463 1464 1464 1465 1466 1466 1467 1468 1469 1470 1470 1471 1471 1472 1472 1473 1473 1473 1473 1474 1474 1474 1474 1475 1476 1476 1477 1477 1477 1478 1479 1479 1480 1481 1482 1482 1483 1483 1483 1484 1484 1484 1484
1448 1448 1449 1449 1450 1450 1451 1451 1452 1452 1453 1453 1454 1454 1455 1455 1456 1457 1457 1458 1458 1459 1459 1460 1461 1462 1462 1463 1464 1464 1465 1466 1467 1468 1468 1469 1469 1470 1471 1471 1472 1472 1473 1473 1473 1473 1473 1474 1474 1474 1474 1475 1476 1477 1477 1478 1479 1479 1480 1480 1481 1481 1482 1482 1482 1483 1483 1483 1483
1447 1448 1448 1449 1449 1449 1450 1450 1451 1451 1452 1452 1453 1454 1454 1455 1455 1456 1456 1457 1457 1458 1459 1460 1460 1461 1461 1462 1463 1464 1464 1465 1466 1467 1468 1468 1469 1469 1470 1471 1471 1472 1472 1473 1473 1473 1473 1474 1474 1474 1474 1475 1476 1477 1477 1478 1478 1479 1479 1480 1480 1480 1481 1481 1481 1481 1481 1481 1482
1446 1447 1447 1448 1448 1449 1449 1450 1450 1451 1451 1452 1452 1453 1453 1454 1454 1455 1455 1456 1457 1458 1459 1459 1459 1460 1461 1461 1462 1463 1464 1465 1466 1467 1467 1468 1469 1469 1470 1470 1471 1471 1472 1472 1473 1473 1473 1474 1474 1474 1475 1475 1476 1476 1477 1477 1478 1478 1479 1479 1479 1480 1480 1480 1480 1480 1480 1480 1481
1446 1446 1447 1447 1448 1448 1449 1449 1449 1450 1450 1451 1451 1452 1452 1453 1454 1454 1455 1455 1456 1457 1458 1458 1459 1459 1460 1461 1462 1462 1463 1464 1465 1466 1467 1468 1469 1469 1469 1470 1470 1471 1471 1472 1472 1472 1473 1473 1474 1474 1475 1475 1476 1476 1476 1477 1477 1478 1478 1478 1479 1479 1479 1479 1479 1479 1479 1480 1480
1445 1446 1446 1447 1447 1448 1448 1448 1449 1449 1449 1450 1450 1451 1452 1452 1453 1454 1454 1455 1456 1457 1457 1458 1459 1459 1460 1460 1461 1462 1463 1464 1465 1466 1467 1467 1468 1469 1469 1470 1470 1471 1471 1471 1471 1472 1472 1473 1474 1474 1475 1475 1475 1476 1476 1476 1477 1477 1477 1477 1477 1478 1478 1478 1479 1479 1479 1479 1479
1444 1445 1445 1446 1446 1447 1447 1447 1448 1448 1449 1449 1450 1450 1451 1452 1452 1453 1454 1454 1455 1456 1457 1458 1458 1459 1460 1460 1461 1462 1463 1464 1464 1465 1466 1467 1468 1468 1469 1469 1470 1470 1471 1471 1471 1472 1473 1473 1474 1474 1474 1474 1475 1475 1475 1476 1476 1476 1476 1476 1476 1477 1477 1477 1477 1477 1477 1478 1478
1444 1444 1445 1445 1446 1446 1446 1447 1447 1448 1448 1449 1449 1450 1451 1451 1452 1452 1453 1454 1455 1456 1457 1457 1458 1459 1460 1460 1461 1462 1462 1463 1464 1465 1465 1466 1467 1468 1469 1469 1469 1470 1470 1471 1471 1472 1472 1473 1473 1473 1474 1474 1474 1474 1475 1475 1475 1475 1475 1475 1475 1475 1475 1476 1476 1476 1476 1476 1476
1444 1444 1444 1445 1445 1446 1446 1446 1447 1447 1448 1448 1449 1450 1451 1451 1452 1452 1453 1454 1455 1455 1456 1457 1458 1459 1460 1460 1461 1462 1462 1463 1464 1465 1465 1466 1467 1468 1468 1469 1469 1470 1470 1471 1471 1471 1472 1472 1472 1473 1473 1473 1474 1474 1474 1474 1474 1474 1474 1474 1474 1474 1474 1474 1474 1474 1474 1474 1474
1444 1444 1444 1445 1445 1446 1446 1446 1447 1447 1448 1449 1449 1450 1450 1451 1452 1452 1453 1454 1454 1455 1456 1457 1458 1459 1460 1461 1461 1462 1463 1463 1464 1465 1465 1466 1467 1468 1468 1469 1469 1469 1470 1470 1470 1471 1471 1471 1472 1472 1472 1473 1473 1473 1474 1474 1474 1474 1473 1473 1473 1473 1473 1473 1473 1473 1473 1473 1473
1444 1444 1445 1445 1446 1446 1446 1447 1447 1448 1449 1449 1450 1450 1451 1452 1452 1453 1453 1454 1454 1455 1456 1457 1458 1459 1459 1461 1462 1462 1463 1464 1464 1465 1466 1467 1467 1468 1468 1468 1469 1469 1469 1469 1470 1470 1470 1471 1471 1471 1472 1472 1473 1473 1473 1473 1473 1472 1472 1472 1472 1472 1472 1471 1471 1471 1471 1471 1471
1445 1445 1445 1446 1446 1447 1447 1448 1448 1449 1449 1450 1451 1451 1452 1452 1453 1453 1454 1454 1455 1456 1457 1457 1458 1459 1459 1461 1462 1463 1463 1464 1465 1465 1466 1467 1467 1467 1467 1468 1468 1468 1469 1469 1469 1469 1470 1470 1471 1471 1471 1472 1472 1472 1472 1471 1471 1471 1471 1470 1470 1470 1470 1470 1470 1470 1470 1470 1470
1446 1446 1446 1447 1447 1448 1449 1449 1449 1449 1450 1451 1452 1452 1452 1452 1453 1454 1454 1454 1455 1456 1457 1457 1458 1459 1460 1461 1462 1463 1464 1464 1465 1465 1466 1466 1466 1467 1467 1467 1468 1468 1468 1468 1469 1469 1469 1469 1470 1470 1471 1471 1471 1471 1470 1470 1470 1469 1469 1469 1469 1469 1469 1469 1469 1469 1469 1469 1469
1447 1447 1447 1448 1448 1449 1450 1450 1450 1450 1451 1451 1452 1452 1452 1452 1453 1454 1454 1455 1455 1456 1456 1457 1458 1459 1460 1461 1462 1463 1464 1464 1464 1465 1466 1466 1466 1467 1467 1467 1467 1467 1467 1468 1468 1468 1469 1469 1469 1469 1470 1470 1470 1470 1469 1469 1469 1469 1469 1468 1468 1468 1468 1468 1469 1469 1468 1468 1468
1448 1449 1449 1449 1449 1450 1451 1451 1451 1450 1451 1451 1452 1452 1452 1452 1453 1454 1454 1455 1456 1456 1457 1458 1459 1460 1461 1462 1463 1464 1464 1464 1465 1465 1466 1466 1467 1467 1467 1467 1466 1466 1466 1466 1467 1467 1468 1468 1469 1469 1469 1469 1469 1469 1469 1469 1468 1468 1468 1468 1468 1468 1468 1468 1468 1468 1468 1468 1468
1449 1450 1450 1451 1451 1451 1451 1451 1451 1451 1451 1452 1452 1452 1453 1453 1453 1454 1455 1456 1457 1458 1459 1460 1461 1462 1462 1463 1464 1464 1464 1464 1465 1465 1466 1466 1466 1466 1466 1466 1466 1466 1466 1466 1466 1467 1467 1468 1468 1468 1468 1469 1469 1468 1468 1468 1468 1467 1467 1467 1467 1467 1468 1468 1468 1468 1467 1467 1467
1451 1451 1452 1452 1452 1451 1451 1451 1451 1452 1452 1453 1454 1454 1454 1454 1455 1456 1457 1458 1459 1460 1461 1461 1462 1462 1463 1463 1464 1464 1464 1464 1465 1465 1466 1466 1466 1466 1466 1466 1466 1466 1466 1466 1466 1467 1467 1467 1468 1468 1468 1468 1468 1468 1468 1467 1467 1467 1467 1467 1467 1467 1467 1467 1467 1467 1467 1467 1467
1452 1453 1453 1453 1453 1453 1453 1453 1453 1454 1454 1455 1455 1456 1456 1456 1456 1457 1458 1460 1460 1461 1461 1462 1462 1463 1463 1463 1463 1464 1464 1464 1465 1465 1466 1466 1466 1466 1467 1466 1466 1466 1466 1466 1467 1467 1467 1467 1467 1468 1468 1468 1468 1467 1467 1467 1467 1467 1467 1467 1467 1467 1467 1467 1467 1467 1467 1467 1467
1454 1454 1454 1454 1454 1454 1454 1454 1455 1456 1456 1457 1457 1458 1458 1458 1459 1459 1460 1461 1461 1461 1462 1462 1463 1463 1463 1464 1464 1464 1464 1464 1465 1465 1466 1466 1467 1467 1467 1466 1466 1466 1466 1466 1467 1467 1467 1467 1467 1467 1467 1467 1467 1467 1467 1466 1466 1466 1466 1466 1466 1467 1467 1467 1466 1466 1466 1466 1466
1454 1455 1455 1455 1455 1455 1456 1456 1457 1457 1457 1458 1458 1459 1459 1459 1460 1460 1461 1461 1462 1462 1462 1463 1463 1464 1464 1464 1464 1464 1464 1464 1465 1465 1466 1466 1466 1467 1466 1466 1466 1465 1466 1466 1466 1466 1466 1466 1466 1466 1466 1466 1466 1466 1466 1465 1465 1465 1466 1466 1466 1466 1466 1466 1466 1465 1465 1465 1465
1455 1455 1456 1456 1456 1457 1457 1458 1458 1458 1458 1459 1459 1459 1459 1459 1460 1460 1461 1461 1462 1462 1462 1463 1463 1464 1464 1464 1464 1464 1464 1465 1465 1465 1466 1466 1466 1466 1466 1466 1466 1465 1465 1465 1466 1466 1466 1465 1465 1465 1465 1465 1465 1465 1465 1465 1465 1465 1465 1465 1465 1465 1465 1465 1465 1465 1465 1465 1465
1456 1457 1457 1457 1458 1458 1458 1458 1458 1459 1459 1459 1459 1459 1460 1460 1460 1461 1461 1462 1462 1462 1462 1463 1463 1464 1464 1464 1464 1464 1464 1465 1465 1466 1466 1466 1466 1466 1466 1466 1466 1466 1466 1466 1466 1466 1466 1465 1465 1465 1465 1465 1465 1465 1464 1464 1465 1465 1465 1465 1465 1465 1464 1464 1464 1464 1464 1464 1464
1458 1458 1458 1459 1459 1459 1459 1459 1459 1459 1459 1460 1460 1460 1460 1460 1461 1461 1461 1462 1462 1462 1462 1463 1463 1464 1464 1464 1464 1465 1465 1465 1466 1466 1466 1466 1466 1466 1466 1466 1466 1466 1466 1466 1466 1466 1466 1466 1465 1465 1465 1465 1465 1465 1464 1465 1465 1465 1465 1465 1465 1464 1464 1464 1464 1464 1464 1464 1464
1459 1459 1459 1459 1459 1459 1459 1459 1460 1460 1460 1460 1460 1460 1461 1461 1461 1461 1461 1461 1462 1462 1462 1463 1463 1463 1464 1464 1464 1465 1465 1466 1466 1466 1466 1466 1466 1466 1466 1467 1467 1467 1466 1466 1466 1466 1466 1466 1466 1465 1465 1465 1465 1465 1465 1465 1465 1465 1465 1465 1465 1464 1464 1464 1464 1464 1464 1464 1464
1459 1459 1459 1459 1459 1460 1460 1460 1460 1460 1461 1461 1461 1461 1461 1461 1461 1461 1461 1461 1462 1462 1462 1463 1463 1464 1464 1464 1464 1465 1465 1466 1466 1466 1467 1467 1467 1467 1467 1468 1468 1468 1468 1467 1467 1466 1466 1466 1466 1466 1465 1465 1465 1465 1465 1465 1465 1465 1465 1465 1465 1464 1464 1464 1464 1464 1463 1463 1463
1459 1459 1460 1460 1460 1460 1460 1460 1460 1460 1460 1461 1460 1460 1461 1461 1461 1461 1461 1461 1462 1462 1462 1463 1463 1464 1464 1464 1464 1465 1465 1466 1466 1466 1467 1467 1467 1467 1467 1468 1468 1469 1469 1469 1468 1467 1466 1466 1466 1466 1466 1465 1465 1465 1465 1465 1465 1465 1465 1465 1465 1464 1464 1464 1464 1463 1463 1463 1462
1460 1460 1460 1460 1460 1460 1460 1460 1460 1460 1460 1460 1460 1460 1460 1460 1461 1461 1461 1461 1462 1462 1463 1463 1463 1464 1464 1464 1464 1465 1465 1466 1466 1466 1467 1467 1467 1467 1468 1468 1468 1469 1469 1469 1469 1468 1467 1467 1466 1466 1466 1466 1466 1466 1466 1465 1465 1465 1465 1465 1465 1464 1464 1464 1463 1463 1463 1462 1462
1460 1460 1460 1460 1460 1460 1460 1460 1460 1460 1460 1460 1460 1460 1461 1461 1461 1461 1462 1462 1462 1462 1463 1463 1463 1464 1464 1464 1464 1465 1465 1466 1466 1467 1467 1467 1467 1468 1468 1468 1469 1469 1469 1469 1469 1468 1468 1468 1467 1466 1466 1466 1466 1466 1466 1465 1465 1465 1465 1465 1464 1464 1464 1463 1463 1463 1462 1462 1461